Location: Home
(42.5358°N, 72.7383°W)
Time: 14:31:08
(UTC-05:00)

Vanguard 3 - Pass Details

Date: 06 December 2021
Orbit: 508 x 3260 km, 33.3° (Epoch: 20 January)

Event Time Altitude Azimuth Distance (km) Brightness Sun altitude
Rises 07:30:31 0° 276° (W) 7,189 11.4 2.9°
Reaches altitude 10° 07:35:53 10° 271° (W) 6,022 11.1 3.7°
Maximum altitude 07:52:14 45° 208° (SSW) 3,013 10.2 6.1°
Drops below altitude 10° 08:02:45 10° 140° (SE) 3,950 13.1 7.6°
Sets 08:05:30 0° 133° (SE) 4,615 13.6 8.0°
